Location: Poughquag
(41.6090°N, 73.6820°W)
Time: 04:44:05
(UTC-04:00)

STARLINK-1326 - Pass Details

Date: 29 May 2020
Orbit: 548 x 550 km, 53.0° (Epoch: 26 September)

Event Time Altitude Azimuth Distance (km) Brightness Sun altitude
Exits shadow 01:29:32 16° 294° (WNW) 1,488 5.9 -26.1°
Maximum altitude 01:31:54 25° 340° (NNW) 1,124 5.7 -26.0°
Drops below altitude 10° 01:35:22 10° 37° (NE) 1,823 7.1 -25.9°
Enters shadow 02:41:32 -54° 260° (W) 10,947 10.2 -21.8°
